Time,TemperatureF,DewpointF,PressureIn,WindDirection,WindDirectionDegrees,WindSpeedMPH,WindSpeedGustMPH,Humidity,HourlyPrecipIn,Conditions,Clouds,dailyrainin,SoftwareType,DateUTC
2013-09-29 00:01:00,75.0,69.6,30.00,East,90,0.0,4.0,83,0.00,,,0.00,WeatherCatV1.21B27,2013-09-29 04:01:00,
2013-09-29 00:06:00,75.0,69.6,30.00,ENE,67,10.3,10.3,83,0.00,,,0.00,WeatherCatV1.21B27,2013-09-29 04:06:00,
2013-09-29 00:11:00,75.0,69.9,30.00,NE,45,3.8,5.1,84,0.00,,,0.00,WeatherCatV1.21B27,2013-09-29 04:11:00,
2013-09-29 00:16:00,75.0,69.9,30.01,ENE,67,0.0,2.9,84,0.00,,,0.00,WeatherCatV1.21B27,2013-09-29 04:16:00,
2013-09-29 00:21:00,75.0,69.6,30.01,NNE,22,5.6,5.6,83,0.00,,,0.00,WeatherCatV1.21B27,2013-09-29 04:21:00,
2013-09-29 00:26:00,75.4,69.9,30.00,NE,45,1.3,5.6,83,0.00,,,0.00,WeatherCatV1.21B27,2013-09-29 04:26:00,
2013-09-29 00:31:00,75.4,69.9,30.00,East,90,2.0,2.0,83,0.00,,,0.00,WeatherCatV1.21B27,2013-09-29 04:31:00,
2013-09-29 00:36:00,75.4,69.9,30.00,ENE,67,0.0,0.0,83,0.00,,,0.00,WeatherCatV1.21B27,2013-09-29 04:36:00,
2013-09-29 00:41:00,75.4,69.9,30.00,ENE,67,3.4,3.4,83,0.00,,,0.00,WeatherCatV1.21B27,2013-09-29 04:41:00,
2013-09-29 00:46:00,75.4,69.6,30.00,East,90,0.7,0.7,82,0.00,,,0.00,WeatherCatV1.21B27,2013-09-29 04:46:00,
2013-09-29 00:51:00,75.4,69.9,30.01,East,90,6.5,6.5,83,0.00,,,0.00,WeatherCatV1.21B27,2013-09-29 04:51:00,
2013-09-29 00:56:00,75.4,69.9,30.01,NNE,22,2.9,2.9,83,0.00,,,0.00,WeatherCatV1.21B27,2013-09-29 04:56:00,
2013-09-29 01:01:00,75.4,69.9,30.00,ENE,67,5.1,5.1,83,0.00,,,0.00,WeatherCatV1.21B27,2013-09-29 05:01:00,
2013-09-29 01:06:00,75.4,70.2,30.00,ENE,67,8.7,8.7,84,0.00,,,0.00,WeatherCatV1.21B27,2013-09-29 05:06:00,
2013-09-29 01:11:00,75.4,70.2,30.00,NE,45,4.0,4.0,84,0.00,,,0.00,WeatherCatV1.21B27,2013-09-29 05:11:00,
2013-09-29 01:16:00,75.4,70.2,30.00,NE,45,3.8,3.8,84,0.00,,,0.00,WeatherCatV1.21B27,2013-09-29 05:16:00,
2013-09-29 01:21:00,75.4,70.2,30.00,ESE,112,0.0,0.0,84,0.00,,,0.00,WeatherCatV1.21B27,2013-09-29 05:21:00,
2013-09-29 01:26:00,75.4,70.2,30.00,NE,45,6.5,6.5,84,0.00,,,0.00,WeatherCatV1.21B27,2013-09-29 05:26:00,
2013-09-29 01:31:00,75.4,70.2,30.00,North,0,5.4,5.4,84,0.00,,,0.00,WeatherCatV1.21B27,2013-09-29 05:31:00,
2013-09-29 01:36:00,75.0,70.2,29.99,NW,315,0.0,0.0,85,0.04,,,0.04,WeatherCatV1.21B27,2013-09-29 05:36:00,
2013-09-29 01:41:00,74.8,70.1,30.00,ENE,67,0.0,4.9,85,0.06,,,0.06,WeatherCatV1.21B27,2013-09-29 05:41:00,
2013-09-29 01:46:00,74.8,70.4,30.00,East,90,1.3,1.3,86,0.06,,,0.06,WeatherCatV1.21B27,2013-09-29 05:46:00,
2013-09-29 01:51:00,74.5,70.1,30.00,East,90,1.3,1.3,86,0.06,,,0.06,WeatherCatV1.21B27,2013-09-29 05:51:00,
2013-09-29 01:56:00,74.3,70.2,30.00,NE,45,6.3,6.3,87,0.06,,,0.06,WeatherCatV1.21B27,2013-09-29 05:56:00,
2013-09-29 02:01:00,74.3,70.2,29.99,ENE,67,1.3,3.6,87,0.06,,,0.06,WeatherCatV1.21B27,2013-09-29 06:01:00,
2013-09-29 02:06:00,74.1,70.0,29.99,SSW,202,0.0,0.0,87,0.06,,,0.06,WeatherCatV1.21B27,2013-09-29 06:06:00,
2013-09-29 02:11:00,74.1,70.0,29.99,NNE,22,0.9,0.9,87,0.06,,,0.06,WeatherCatV1.21B27,2013-09-29 06:11:00,
2013-09-29 02:16:00,74.1,70.0,29.99,East,90,0.0,0.0,87,0.06,,,0.06,WeatherCatV1.21B27,2013-09-29 06:16:00,
2013-09-29 02:21:00,73.9,69.8,29.99,NNE,22,2.5,2.5,87,0.06,,,0.06,WeatherCatV1.21B27,2013-09-29 06:21:00,
2013-09-29 02:26:00,73.9,70.2,29.99,NE,45,5.1,5.1,88,0.06,,,0.06,WeatherCatV1.21B27,2013-09-29 06:26:00,
2013-09-29 02:31:00,74.1,70.4,29.99,ESE,112,0.0,0.0,88,0.02,,,0.06,WeatherCatV1.21B27,2013-09-29 06:31:00,
2013-09-29 02:36:00,73.9,70.2,29.98,NE,45,2.5,2.5,88,0.02,,,0.06,WeatherCatV1.21B27,2013-09-29 06:36:00,
2013-09-29 02:41:00,73.9,69.8,29.98,ENE,67,2.5,3.6,87,0.00,,,0.06,WeatherCatV1.21B27,2013-09-29 06:41:00,
2013-09-29 02:46:00,73.9,70.2,29.98,East,90,6.3,6.3,88,0.00,,,0.06,WeatherCatV1.21B27,2013-09-29 06:46:00,
2013-09-29 02:51:00,73.8,70.0,29.98,North,0,5.6,5.6,88,0.00,,,0.06,WeatherCatV1.21B27,2013-09-29 06:51:00,
2013-09-29 02:56:00,73.6,69.8,29.98,NE,45,4.5,4.5,88,0.00,,,0.06,WeatherCatV1.21B27,2013-09-29 06:56:00,
2013-09-29 03:01:00,73.6,69.8,29.98,East,90,2.0,2.0,88,0.00,,,0.06,WeatherCatV1.21B27,2013-09-29 07:01:00,
2013-09-29 03:06:00,73.6,69.8,29.98,East,90,4.0,4.0,88,0.00,,,0.06,WeatherCatV1.21B27,2013-09-29 07:06:00,
2013-09-29 03:11:00,73.4,69.7,29.98,East,90,0.0,0.0,88,0.00,,,0.06,WeatherCatV1.21B27,2013-09-29 07:11:00,
2013-09-29 03:16:00,73.2,69.5,29.98,SE,135,1.1,1.1,88,0.00,,,0.06,WeatherCatV1.21B27,2013-09-29 07:16:00,
2013-09-29 03:21:00,73.2,69.5,29.98,SE,135,0.0,0.0,88,0.00,,,0.06,WeatherCatV1.21B27,2013-09-29 07:21:00,
2013-09-29 03:26:00,73.2,69.1,29.98,NE,45,2.5,3.1,87,0.00,,,0.06,WeatherCatV1.21B27,2013-09-29 07:26:00,
2013-09-29 03:31:00,73.2,69.1,29.98,ENE,67,5.6,5.6,87,0.00,,,0.06,WeatherCatV1.21B27,2013-09-29 07:31:00,
2013-09-29 03:36:00,73.2,69.1,29.98,NE,45,0.0,0.0,87,0.00,,,0.06,WeatherCatV1.21B27,2013-09-29 07:36:00,
2013-09-29 03:41:00,73.0,68.9,29.98,NE,45,0.0,6.5,87,0.00,,,0.06,WeatherCatV1.21B27,2013-09-29 07:41:00,
2013-09-29 03:46:00,73.0,69.3,29.98,North,0,3.1,3.1,88,0.00,,,0.06,WeatherCatV1.21B27,2013-09-29 07:46:00,
2013-09-29 03:51:00,73.0,69.3,29.98,ESE,112,2.0,2.5,88,0.00,,,0.06,WeatherCatV1.21B27,2013-09-29 07:51:00,
2013-09-29 03:56:00,73.0,68.9,29.97,ESE,112,0.0,1.6,87,0.00,,,0.06,WeatherCatV1.21B27,2013-09-29 07:56:00,
2013-09-29 04:01:00,73.0,68.9,29.98,NE,45,0.0,0.0,87,0.00,,,0.06,WeatherCatV1.21B27,2013-09-29 08:01:00,
2013-09-29 04:06:00,72.9,68.8,29.97,NNW,337,0.0,0.0,87,0.00,,,0.06,WeatherCatV1.21B27,2013-09-29 08:06:00,
2013-09-29 04:11:00,72.7,68.6,29.98,ENE,67,0.0,0.0,87,0.00,,,0.06,WeatherCatV1.21B27,2013-09-29 08:11:00,
2013-09-29 04:16:00,72.9,68.8,29.97,NE,45,1.8,1.8,87,0.00,,,0.06,WeatherCatV1.21B27,2013-09-29 08:16:00,
2013-09-29 04:21:00,72.9,68.8,29.97,ENE,67,0.0,0.0,87,0.00,,,0.06,WeatherCatV1.21B27,2013-09-29 08:21:00,
2013-09-29 04:26:00,72.9,68.8,29.97,East,90,0.0,0.0,87,0.00,,,0.06,WeatherCatV1.21B27,2013-09-29 08:26:00,
2013-09-29 04:31:00,72.9,68.8,29.98,ENE,67,0.0,0.0,87,0.00,,,0.06,WeatherCatV1.21B27,2013-09-29 08:31:00,
2013-09-29 04:36:00,72.7,68.2,29.98,East,90,0.0,0.0,86,0.00,,,0.06,WeatherCatV1.21B27,2013-09-29 08:36:00,
2013-09-29 04:41:00,72.7,68.2,29.97,WSW,247,0.0,0.0,86,0.00,,,0.06,WeatherCatV1.21B27,2013-09-29 08:41:00,
2013-09-29 04:46:00,72.7,68.2,29.97,SW,225,0.0,0.0,86,0.00,,,0.06,WeatherCatV1.21B27,2013-09-29 08:46:00,
2013-09-29 04:51:00,72.7,68.2,29.97,ENE,67,0.0,0.0,86,0.00,,,0.06,WeatherCatV1.21B27,2013-09-29 08:51:00,
2013-09-29 04:56:00,73.0,68.6,29.97,ESE,112,3.6,3.6,86,0.00,,,0.06,WeatherCatV1.21B27,2013-09-29 08:56:00,
2013-09-29 05:01:00,73.0,68.6,29.97,NE,45,0.0,0.0,86,0.00,,,0.06,WeatherCatV1.21B27,2013-09-29 09:01:00,
2013-09-29 05:06:00,73.2,68.8,29.98,NNW,337,3.8,3.8,86,0.00,,,0.06,WeatherCatV1.21B27,2013-09-29 09:06:00,
2013-09-29 05:11:00,73.2,68.8,29.98,SE,135,0.0,1.3,86,0.00,,,0.06,WeatherCatV1.21B27,2013-09-29 09:11:00,
2013-09-29 05:16:00,73.2,69.1,29.98,East,90,2.5,2.5,87,0.00,,,0.06,WeatherCatV1.21B27,2013-09-29 09:16:00,
2013-09-29 05:21:00,73.2,69.1,29.97,NE,45,3.6,3.6,87,0.00,,,0.06,WeatherCatV1.21B27,2013-09-29 09:21:00,
2013-09-29 05:26:00,73.2,69.1,29.98,NE,45,2.5,2.9,87,0.00,,,0.06,WeatherCatV1.21B27,2013-09-29 09:26:00,
2013-09-29 05:31:00,73.2,69.1,29.98,ENE,67,5.8,5.8,87,0.00,,,0.06,WeatherCatV1.21B27,2013-09-29 09:31:00,
2013-09-29 05:36:00,73.2,69.1,29.98,NE,45,1.3,1.3,87,0.00,,,0.06,WeatherCatV1.21B27,2013-09-29 09:36:00,
2013-09-29 05:41:00,73.0,68.9,29.98,North,0,0.9,0.9,87,0.00,,,0.06,WeatherCatV1.21B27,2013-09-29 09:41:00,
2013-09-29 05:46:00,72.7,68.6,29.99,NNW,337,0.0,0.0,87,0.00,,,0.06,WeatherCatV1.21B27,2013-09-29 09:46:00,
2013-09-29 05:51:00,72.5,68.4,29.99,NW,315,1.6,1.6,87,0.02,,,0.08,WeatherCatV1.21B27,2013-09-29 09:51:00,
2013-09-29 05:56:00,72.1,68.4,29.99,WSW,247,0.0,0.0,88,0.04,,,0.10,WeatherCatV1.21B27,2013-09-29 09:56:00,
2013-09-29 06:01:00,71.8,68.0,29.99,NW,315,0.0,0.0,88,0.08,,,0.14,WeatherCatV1.21B27,2013-09-29 10:01:00,
2013-09-29 06:06:00,71.4,67.7,29.99,WNW,292,0.0,0.0,88,0.16,,,0.22,WeatherCatV1.21B27,2013-09-29 10:06:00,
2013-09-29 06:11:00,71.2,67.8,30.00,West,270,0.0,0.0,89,0.18,,,0.24,WeatherCatV1.21B27,2013-09-29 10:11:00,
2013-09-29 06:16:00,71.2,67.8,30.00,WNW,292,0.0,0.0,89,0.20,,,0.26,WeatherCatV1.21B27,2013-09-29 10:16:00,
2013-09-29 06:21:00,70.9,67.8,29.99,West,270,0.0,0.0,90,0.22,,,0.29,WeatherCatV1.21B27,2013-09-29 10:21:00,
2013-09-29 06:26:00,70.7,67.6,30.00,NNW,337,0.0,0.0,90,0.26,,,0.33,WeatherCatV1.21B27,2013-09-29 10:26:00,
2013-09-29 06:31:00,70.7,67.6,30.00,NNE,22,0.0,0.0,90,0.26,,,0.33,WeatherCatV1.21B27,2013-09-29 10:31:00,
2013-09-29 06:36:00,70.9,67.8,30.00,WNW,292,2.7,2.7,90,0.29,,,0.35,WeatherCatV1.21B27,2013-09-29 10:36:00,
2013-09-29 06:41:00,70.9,67.8,29.99,North,0,0.0,0.0,90,0.29,,,0.35,WeatherCatV1.21B27,2013-09-29 10:41:00,
2013-09-29 06:46:00,70.9,67.8,30.00,ENE,67,0.0,0.0,90,0.26,,,0.35,WeatherCatV1.21B27,2013-09-29 10:46:00,
2013-09-29 06:51:00,70.9,67.8,30.00,NNW,337,0.9,0.9,90,0.26,,,0.35,WeatherCatV1.21B27,2013-09-29 10:51:00,
2013-09-29 06:56:00,71.1,68.0,30.00,ENE,67,3.8,3.8,90,0.24,,,0.35,WeatherCatV1.21B27,2013-09-29 10:56:00,
2013-09-29 07:01:00,71.1,68.0,30.00,NNW,337,0.9,0.9,90,0.22,,,0.37,WeatherCatV1.21B27,2013-09-29 11:01:00,
2013-09-29 07:06:00,71.2,68.2,30.00,NE,45,1.3,1.3,90,0.12,,,0.37,WeatherCatV1.21B27,2013-09-29 11:06:00,
2013-09-29 07:11:00,70.9,67.8,30.00,West,270,0.0,0.0,90,0.10,,,0.37,WeatherCatV1.21B27,2013-09-29 11:11:00,
2013-09-29 07:16:00,70.9,67.8,30.00,West,270,1.6,1.6,90,0.10,,,0.37,WeatherCatV1.21B27,2013-09-29 11:16:00,
2013-09-29 07:21:00,70.9,67.8,30.00,NE,45,0.9,0.9,90,0.08,,,0.37,WeatherCatV1.21B27,2013-09-29 11:21:00,
2013-09-29 07:26:00,70.9,67.8,30.01,North,0,0.0,2.0,90,0.04,,,0.37,WeatherCatV1.21B27,2013-09-29 11:26:00,
2013-09-29 07:31:00,71.2,68.2,30.01,NE,45,0.7,0.7,90,0.02,,,0.37,WeatherCatV1.21B27,2013-09-29 11:31:00,
2013-09-29 07:36:00,71.2,68.2,30.01,NW,315,0.0,0.0,90,0.02,,,0.37,WeatherCatV1.21B27,2013-09-29 11:36:00,
2013-09-29 07:41:00,71.4,68.4,30.01,West,270,0.0,0.0,90,0.02,,,0.37,WeatherCatV1.21B27,2013-09-29 11:41:00,
2013-09-29 07:46:00,71.2,68.2,30.01,SSW,202,0.0,0.0,90,0.02,,,0.37,WeatherCatV1.21B27,2013-09-29 11:46:00,
2013-09-29 07:51:00,71.2,68.2,30.01,NE,45,0.9,0.9,90,0.02,,,0.37,WeatherCatV1.21B27,2013-09-29 11:51:00,
2013-09-29 07:56:00,71.4,68.4,30.01,ENE,67,1.3,1.3,90,0.02,,,0.37,WeatherCatV1.21B27,2013-09-29 11:56:00,
2013-09-29 08:01:00,71.8,68.7,30.01,ENE,67,0.0,0.0,90,0.00,,,0.37,WeatherCatV1.21B27,2013-09-29 12:01:00,
2013-09-29 08:06:00,72.1,69.1,30.01,East,90,3.1,3.1,90,0.00,,,0.37,WeatherCatV1.21B27,2013-09-29 12:06:00,
2013-09-29 08:11:00,72.7,68.9,30.01,NNE,22,9.8,9.8,88,0.00,,,0.37,WeatherCatV1.21B27,2013-09-29 12:11:00,
2013-09-29 08:16:00,73.0,69.3,30.01,NNE,22,4.2,4.2,88,0.00,,,0.37,WeatherCatV1.21B27,2013-09-29 12:16:00,
2013-09-29 08:21:00,73.2,69.1,30.00,ENE,67,4.5,4.5,87,0.00,,,0.37,WeatherCatV1.21B27,2013-09-29 12:21:00,
2013-09-29 08:26:00,73.6,69.5,30.01,NE,45,1.6,3.8,87,0.00,,,0.37,WeatherCatV1.21B27,2013-09-29 12:26:00,
2013-09-29 08:31:00,73.8,69.3,30.01,NE,45,3.6,3.6,86,0.00,,,0.37,WeatherCatV1.21B27,2013-09-29 12:31:00,
2013-09-29 08:36:00,74.1,69.5,30.01,East,90,4.5,4.7,86,0.00,,,0.37,WeatherCatV1.21B27,2013-09-29 12:36:00,
2013-09-29 08:41:00,74.3,69.5,30.01,ESE,112,0.0,4.2,85,0.00,,,0.37,WeatherCatV1.21B27,2013-09-29 12:41:00,
2013-09-29 08:46:00,74.5,69.7,30.01,ENE,67,4.7,4.7,85,0.00,,,0.37,WeatherCatV1.21B27,2013-09-29 12:46:00,
2013-09-29 08:51:00,74.5,69.7,30.02,NE,45,3.4,3.4,85,0.00,,,0.37,WeatherCatV1.21B27,2013-09-29 12:51:00,
2013-09-29 08:56:00,74.7,69.9,30.02,NE,45,0.0,0.0,85,0.00,,,0.37,WeatherCatV1.21B27,2013-09-29 12:56:00,
2013-09-29 09:01:00,74.8,70.1,30.02,NE,45,8.5,8.5,85,0.00,,,0.37,WeatherCatV1.21B27,2013-09-29 13:01:00,
2013-09-29 09:06:00,74.8,70.1,30.02,ENE,67,6.5,6.5,85,0.00,,,0.37,WeatherCatV1.21B27,2013-09-29 13:06:00,
2013-09-29 09:11:00,74.8,70.1,30.02,ENE,67,2.5,2.5,85,0.00,,,0.37,WeatherCatV1.21B27,2013-09-29 13:11:00,
2013-09-29 09:16:00,74.8,70.1,30.01,NE,45,1.3,1.3,85,0.00,,,0.37,WeatherCatV1.21B27,2013-09-29 13:16:00,
2013-09-29 09:21:00,75.0,70.2,30.02,NNE,22,2.0,4.7,85,0.00,,,0.37,WeatherCatV1.21B27,2013-09-29 13:21:00,
2013-09-29 09:26:00,75.0,70.2,30.02,ENE,67,3.1,3.1,85,0.00,,,0.37,WeatherCatV1.21B27,2013-09-29 13:26:00,
2013-09-29 09:31:00,75.0,69.9,30.02,ESE,112,0.0,0.0,84,0.00,,,0.37,WeatherCatV1.21B27,2013-09-29 13:31:00,
2013-09-29 09:36:00,75.2,70.1,30.02,ENE,67,5.4,5.4,84,0.00,,,0.37,WeatherCatV1.21B27,2013-09-29 13:36:00,
2013-09-29 09:41:00,75.4,70.2,30.02,NNE,22,2.5,5.8,84,0.00,,,0.37,WeatherCatV1.21B27,2013-09-29 13:41:00,
2013-09-29 09:46:00,75.7,70.6,30.02,ENE,67,4.7,4.7,84,0.00,,,0.37,WeatherCatV1.21B27,2013-09-29 13:46:00,
2013-09-29 09:51:00,75.9,70.8,30.02,NE,45,4.2,5.1,84,0.00,,,0.37,WeatherCatV1.21B27,2013-09-29 13:51:00,
2013-09-29 09:56:00,75.9,70.4,30.02,NNW,337,5.1,5.1,83,0.00,,,0.37,WeatherCatV1.21B27,2013-09-29 13:56:00,
2013-09-29 10:01:00,76.1,70.6,30.02,ENE,67,3.8,3.8,83,0.00,,,0.37,WeatherCatV1.21B27,2013-09-29 14:01:00,
2013-09-29 10:07:00,76.3,70.4,30.02,NNE,22,1.6,6.0,82,0.00,,,0.37,WeatherCatV1.21B27,2013-09-29 14:07:00,
2013-09-29 10:12:00,76.5,70.6,30.02,NE,45,2.7,2.7,82,0.00,,,0.37,WeatherCatV1.21B27,2013-09-29 14:12:00,
2013-09-29 10:17:00,76.3,70.7,30.02,ENE,67,2.2,2.2,83,0.00,,,0.37,WeatherCatV1.21B27,2013-09-29 14:17:00,
2013-09-29 10:22:00,76.3,70.4,30.02,East,90,0.0,5.1,82,0.00,,,0.37,WeatherCatV1.21B27,2013-09-29 14:22:00,
2013-09-29 10:27:00,76.6,70.7,30.02,NE,45,4.7,4.7,82,0.00,,,0.37,WeatherCatV1.21B27,2013-09-29 14:27:00,
2013-09-29 10:32:00,76.8,70.9,30.02,NE,45,2.0,2.0,82,0.00,,,0.37,WeatherCatV1.21B27,2013-09-29 14:32:00,
2013-09-29 10:37:00,77.0,71.1,30.02,NNE,22,8.9,8.9,82,0.00,,,0.37,WeatherCatV1.21B27,2013-09-29 14:37:00,
2013-09-29 10:42:00,77.4,71.4,30.02,ENE,67,6.3,6.3,82,0.00,,,0.37,WeatherCatV1.21B27,2013-09-29 14:42:00,
2013-09-29 10:47:00,77.5,71.6,30.02,ENE,67,4.5,4.5,82,0.00,,,0.37,WeatherCatV1.21B27,2013-09-29 14:47:00,
2013-09-29 10:52:00,77.5,71.2,30.02,NE,45,3.6,3.6,81,0.00,,,0.37,WeatherCatV1.21B27,2013-09-29 14:52:00,
2013-09-29 10:57:00,77.5,71.2,30.02,NE,45,0.0,0.0,81,0.00,,,0.37,WeatherCatV1.21B27,2013-09-29 14:57:00,
2013-09-29 11:02:00,77.5,71.2,30.02,NE,45,13.2,13.2,81,0.00,,,0.37,WeatherCatV1.21B27,2013-09-29 15:02:00,
2013-09-29 11:07:00,77.7,71.4,30.02,NE,45,8.7,8.7,81,0.00,,,0.37,WeatherCatV1.21B27,2013-09-29 15:07:00,
2013-09-29 11:12:00,77.7,71.4,30.02,East,90,0.7,0.7,81,0.00,,,0.37,WeatherCatV1.21B27,2013-09-29 15:12:00,
2013-09-29 11:17:00,77.7,71.4,30.02,ENE,67,6.3,6.3,81,0.00,,,0.37,WeatherCatV1.21B27,2013-09-29 15:17:00,
2013-09-29 11:22:00,78.1,71.4,30.02,NE,45,3.4,3.8,80,0.00,,,0.37,WeatherCatV1.21B27,2013-09-29 15:22:00,
2013-09-29 11:27:00,78.1,71.4,30.02,North,0,2.5,2.5,80,0.00,,,0.37,WeatherCatV1.21B27,2013-09-29 15:27:00,
2013-09-29 11:32:00,78.4,71.8,30.02,NNE,22,9.8,9.8,80,0.00,,,0.37,WeatherCatV1.21B27,2013-09-29 15:32:00,
2013-09-29 11:37:00,78.4,71.8,30.02,NE,45,3.1,7.4,80,0.00,,,0.37,WeatherCatV1.21B27,2013-09-29 15:37:00,
2013-09-29 11:42:00,78.6,72.0,30.02,ENE,67,4.9,4.9,80,0.00,,,0.37,WeatherCatV1.21B27,2013-09-29 15:42:00,
2013-09-29 11:47:00,78.8,72.1,30.02,NE,45,6.7,6.7,80,0.00,,,0.37,WeatherCatV1.21B27,2013-09-29 15:47:00,
2013-09-29 11:52:00,79.2,72.1,30.02,NNE,22,8.7,8.7,79,0.00,,,0.37,WeatherCatV1.21B27,2013-09-29 15:52:00,
2013-09-29 11:57:00,79.2,71.7,30.02,ESE,112,2.5,2.5,78,0.00,,,0.37,WeatherCatV1.21B27,2013-09-29 15:57:00,
2013-09-29 12:03:00,79.2,72.1,30.02,North,0,8.3,8.3,79,0.00,,,0.37,WeatherCatV1.21B27,2013-09-29 16:03:00,
2013-09-29 12:08:00,79.0,71.5,30.02,ENE,67,4.5,4.5,78,0.00,,,0.37,WeatherCatV1.21B27,2013-09-29 16:08:00,
2013-09-29 12:13:00,79.2,71.7,30.02,NE,45,1.8,4.5,78,0.00,,,0.37,WeatherCatV1.21B27,2013-09-29 16:13:00,
2013-09-29 12:18:00,79.0,71.9,30.02,North,0,6.5,6.5,79,0.00,,,0.37,WeatherCatV1.21B27,2013-09-29 16:18:00,
2013-09-29 12:23:00,79.0,71.5,30.02,NNW,337,4.5,4.5,78,0.00,,,0.37,WeatherCatV1.21B27,2013-09-29 16:23:00,
2013-09-29 12:28:00,79.2,72.1,30.02,North,0,7.2,7.2,79,0.00,,,0.37,WeatherCatV1.21B27,2013-09-29 16:28:00,
2013-09-29 12:33:00,79.2,72.1,30.02,ENE,67,4.5,4.5,79,0.00,,,0.37,WeatherCatV1.21B27,2013-09-29 16:33:00,
2013-09-29 12:38:00,79.2,71.7,30.02,NE,45,3.8,3.8,78,0.00,,,0.37,WeatherCatV1.21B27,2013-09-29 16:38:00,
2013-09-29 12:43:00,79.2,71.7,30.02,NNE,22,5.8,8.5,78,0.00,,,0.37,WeatherCatV1.21B27,2013-09-29 16:43:00,
2013-09-29 12:48:00,79.3,72.3,30.02,East,90,9.8,9.8,79,0.00,,,0.37,WeatherCatV1.21B27,2013-09-29 16:48:00,
2013-09-29 12:53:00,79.5,72.1,30.02,SSE,157,8.1,8.1,78,0.00,,,0.37,WeatherCatV1.21B27,2013-09-29 16:53:00,
2013-09-29 12:58:00,79.5,72.5,30.02,NE,45,5.4,5.8,79,0.00,,,0.37,WeatherCatV1.21B27,2013-09-29 16:58:00,
2013-09-29 13:03:00,79.5,72.5,30.01,NE,45,6.0,6.0,79,0.00,,,0.37,WeatherCatV1.21B27,2013-09-29 17:03:00,
2013-09-29 13:08:00,79.3,71.9,30.01,NNE,22,4.5,4.5,78,0.00,,,0.37,WeatherCatV1.21B27,2013-09-29 17:08:00,
2013-09-29 13:13:00,79.5,72.5,30.01,NNE,22,3.1,3.1,79,0.00,,,0.37,WeatherCatV1.21B27,2013-09-29 17:13:00,
2013-09-29 13:18:00,79.7,72.2,30.01,NW,315,0.0,0.0,78,0.00,,,0.37,WeatherCatV1.21B27,2013-09-29 17:18:00,
2013-09-29 13:23:00,79.5,72.1,30.01,North,0,4.7,4.7,78,0.00,,,0.37,WeatherCatV1.21B27,2013-09-29 17:23:00,
2013-09-29 13:28:00,79.5,72.1,30.00,NE,45,15.2,15.2,78,0.00,,,0.37,WeatherCatV1.21B27,2013-09-29 17:28:00,
2013-09-29 13:33:00,79.5,72.1,30.00,East,90,7.8,7.8,78,0.00,,,0.37,WeatherCatV1.21B27,2013-09-29 17:33:00,
2013-09-29 13:38:00,79.7,72.2,30.00,NE,45,4.5,4.5,78,0.00,,,0.37,WeatherCatV1.21B27,2013-09-29 17:38:00,
2013-09-29 13:43:00,79.7,71.5,30.00,NE,45,1.3,3.1,76,0.00,,,0.37,WeatherCatV1.21B27,2013-09-29 17:43:00,
2013-09-29 13:48:00,79.5,71.7,30.00,North,0,8.1,9.2,77,0.00,,,0.37,WeatherCatV1.21B27,2013-09-29 17:48:00,
2013-09-29 13:53:00,79.5,71.7,30.00,NE,45,4.7,4.7,77,0.00,,,0.37,WeatherCatV1.21B27,2013-09-29 17:53:00,
2013-09-29 13:58:00,79.5,71.7,30.00,NW,315,0.0,5.6,77,0.00,,,0.37,WeatherCatV1.21B27,2013-09-29 17:58:00,
2013-09-29 14:03:00,79.5,71.7,30.00,NE,45,10.1,10.1,77,0.00,,,0.37,WeatherCatV1.21B27,2013-09-29 18:03:00,
2013-09-29 14:08:00,79.5,71.7,29.99,NNE,22,5.6,5.6,77,0.00,,,0.37,WeatherCatV1.21B27,2013-09-29 18:08:00,
2013-09-29 14:13:00,79.3,71.5,29.99,North,0,1.8,2.9,77,0.00,,,0.37,WeatherCatV1.21B27,2013-09-29 18:13:00,
2013-09-29 14:18:00,78.6,70.8,29.99,NE,45,4.5,4.5,77,0.00,,,0.37,WeatherCatV1.21B27,2013-09-29 18:18:00,
2013-09-29 14:23:00,78.4,70.6,29.98,East,90,2.5,2.5,77,0.00,,,0.37,WeatherCatV1.21B27,2013-09-29 18:23:00,
2013-09-29 14:28:00,78.8,70.9,29.99,WNW,292,3.6,3.6,77,0.00,,,0.37,WeatherCatV1.21B27,2013-09-29 18:28:00,
2013-09-29 14:33:00,79.0,71.5,29.98,NNW,337,3.8,3.8,78,0.00,,,0.37,WeatherCatV1.21B27,2013-09-29 18:33:00,
2013-09-29 14:38:00,79.2,70.9,29.98,ENE,67,4.0,4.0,76,0.00,,,0.37,WeatherCatV1.21B27,2013-09-29 18:38:00,
2013-09-29 14:43:00,79.3,71.1,29.98,SE,135,0.0,7.8,76,0.00,,,0.37,WeatherCatV1.21B27,2013-09-29 18:43:00,
2013-09-29 14:48:00,79.5,71.3,29.98,ENE,67,3.6,3.6,76,0.00,,,0.37,WeatherCatV1.21B27,2013-09-29 18:48:00,
2013-09-29 14:53:00,79.7,71.5,29.98,ENE,67,4.2,4.2,76,0.00,,,0.37,WeatherCatV1.21B27,2013-09-29 18:53:00,
2013-09-29 14:58:00,79.9,71.2,29.98,NNE,22,6.3,6.3,75,0.00,,,0.37,WeatherCatV1.21B27,2013-09-29 18:58:00,
2013-09-29 15:03:00,79.9,71.2,29.98,NE,45,6.0,6.0,75,0.00,,,0.37,WeatherCatV1.21B27,2013-09-29 19:03:00,
2013-09-29 15:08:00,79.9,71.2,29.97,East,90,4.2,4.2,75,0.00,,,0.37,WeatherCatV1.21B27,2013-09-29 19:08:00,
2013-09-29 15:13:00,80.2,71.6,29.97,NNE,22,5.1,7.8,75,0.00,,,0.37,WeatherCatV1.21B27,2013-09-29 19:13:00,
2013-09-29 15:18:00,80.2,71.6,29.97,SE,135,3.1,3.1,75,0.00,,,0.37,WeatherCatV1.21B27,2013-09-29 19:18:00,
2013-09-29 15:23:00,80.4,71.8,29.97,NNE,22,5.8,5.8,75,0.00,,,0.37,WeatherCatV1.21B27,2013-09-29 19:23:00,
2013-09-29 15:28:00,80.4,71.4,29.97,West,270,1.1,1.1,74,0.00,,,0.37,WeatherCatV1.21B27,2013-09-29 19:28:00,
2013-09-29 15:33:00,80.4,71.4,29.97,NE,45,9.4,9.4,74,0.00,,,0.37,WeatherCatV1.21B27,2013-09-29 19:33:00,
2013-09-29 15:38:00,80.2,70.8,29.97,ESE,112,10.7,10.7,73,0.00,,,0.37,WeatherCatV1.21B27,2013-09-29 19:38:00,
2013-09-29 15:43:00,80.1,71.0,29.97,East,90,9.2,9.2,74,0.00,,,0.37,WeatherCatV1.21B27,2013-09-29 19:43:00,
2013-09-29 15:48:00,79.9,70.8,29.97,NE,45,0.7,1.3,74,0.00,,,0.37,WeatherCatV1.21B27,2013-09-29 19:48:00,
2013-09-29 15:53:00,79.9,70.8,29.97,East,90,7.8,7.8,74,0.00,,,0.37,WeatherCatV1.21B27,2013-09-29 19:53:00,
2013-09-29 15:58:00,80.2,70.8,29.97,East,90,7.6,8.3,73,0.00,,,0.37,WeatherCatV1.21B27,2013-09-29 19:58:00,
2013-09-29 16:03:00,80.2,70.8,29.97,NE,45,6.9,6.9,73,0.00,,,0.37,WeatherCatV1.21B27,2013-09-29 20:03:00,
2013-09-29 16:08:00,80.2,70.8,29.97,ESE,112,3.4,3.4,73,0.00,,,0.37,WeatherCatV1.21B27,2013-09-29 20:08:00,
2013-09-29 16:13:00,80.2,71.2,29.96,NE,45,3.6,3.8,74,0.00,,,0.37,WeatherCatV1.21B27,2013-09-29 20:13:00,
2013-09-29 16:18:00,80.2,70.8,29.96,NE,45,9.8,9.8,73,0.00,,,0.37,WeatherCatV1.21B27,2013-09-29 20:18:00,
2013-09-29 16:23:00,80.1,70.6,29.96,South,180,1.6,1.6,73,0.00,,,0.37,WeatherCatV1.21B27,2013-09-29 20:23:00,
2013-09-29 16:28:00,79.5,70.5,29.96,NE,45,2.5,4.0,74,0.00,,,0.37,WeatherCatV1.21B27,2013-09-29 20:28:00,
2013-09-29 16:33:00,79.3,69.9,29.96,ESE,112,3.1,3.1,73,0.00,,,0.37,WeatherCatV1.21B27,2013-09-29 20:33:00,
2013-09-29 16:38:00,79.3,70.5,29.96,NNE,22,9.8,11.0,74,0.00,,,0.37,WeatherCatV1.21B27,2013-09-29 20:38:00,
2013-09-29 16:43:00,79.7,70.3,29.96,ESE,112,2.7,2.7,73,0.00,,,0.37,WeatherCatV1.21B27,2013-09-29 20:43:00,
2013-09-29 16:48:00,79.9,70.4,29.96,ENE,67,7.6,7.6,73,0.00,,,0.37,WeatherCatV1.21B27,2013-09-29 20:48:00,
2013-09-29 16:53:00,79.5,70.1,29.96,NE,45,5.1,5.1,73,0.00,,,0.37,WeatherCatV1.21B27,2013-09-29 20:53:00,
2013-09-29 16:58:00,79.3,69.9,29.96,North,0,2.7,2.7,73,0.00,,,0.37,WeatherCatV1.21B27,2013-09-29 20:58:00,
2013-09-29 17:03:00,79.2,69.7,29.96,NNE,22,7.4,7.4,73,0.00,,,0.37,WeatherCatV1.21B27,2013-09-29 21:03:00,
2013-09-29 17:08:00,79.2,69.7,29.96,NNE,22,10.5,10.5,73,0.00,,,0.37,WeatherCatV1.21B27,2013-09-29 21:08:00,
2013-09-29 17:13:00,79.2,69.7,29.97,NE,45,3.4,3.4,73,0.00,,,0.37,WeatherCatV1.21B27,2013-09-29 21:13:00,
2013-09-29 17:18:00,79.2,69.7,29.96,ESE,112,6.5,6.5,73,0.00,,,0.37,WeatherCatV1.21B27,2013-09-29 21:18:00,
2013-09-29 17:23:00,79.0,69.6,29.96,NE,45,3.1,3.1,73,0.00,,,0.37,WeatherCatV1.21B27,2013-09-29 21:23:00,
2013-09-29 17:28:00,78.6,69.2,29.97,East,90,3.6,3.6,73,0.00,,,0.37,WeatherCatV1.21B27,2013-09-29 21:28:00,
2013-09-29 17:33:00,78.4,69.4,29.97,NNW,337,3.6,3.6,74,0.00,,,0.37,WeatherCatV1.21B27,2013-09-29 21:33:00,
2013-09-29 17:38:00,78.4,69.0,29.97,SSW,202,0.9,0.9,73,0.00,,,0.37,WeatherCatV1.21B27,2013-09-29 21:38:00,
2013-09-29 17:43:00,79.0,69.6,29.97,ENE,67,2.0,4.9,73,0.00,,,0.37,WeatherCatV1.21B27,2013-09-29 21:43:00,
2013-09-29 17:48:00,79.0,69.6,29.96,NNW,337,0.7,0.7,73,0.00,,,0.37,WeatherCatV1.21B27,2013-09-29 21:48:00,
2013-09-29 17:53:00,78.8,69.4,29.97,North,0,6.9,6.9,73,0.00,,,0.37,WeatherCatV1.21B27,2013-09-29 21:53:00,
2013-09-29 17:58:00,78.6,69.2,29.97,North,0,0.0,2.7,73,0.00,,,0.37,WeatherCatV1.21B27,2013-09-29 21:58:00,
2013-09-29 18:03:00,78.6,69.2,29.97,NE,45,2.2,2.2,73,0.00,,,0.37,WeatherCatV1.21B27,2013-09-29 22:03:00,
2013-09-29 18:08:00,78.4,68.7,29.97,SE,135,0.0,0.0,73,0.00,,,0.37,WeatherCatV1.21B27,2013-09-29 22:08:00,
2013-09-29 18:13:00,77.7,68.7,29.97,ENE,67,5.1,5.1,74,0.00,,,0.37,WeatherCatV1.21B27,2013-09-29 22:13:00,
2013-09-29 18:18:00,77.5,68.6,29.97,SE,135,1.8,5.1,74,0.00,,,0.37,WeatherCatV1.21B27,2013-09-29 22:18:00,
2013-09-29 18:23:00,77.4,68.8,29.96,North,0,5.8,5.8,75,0.00,,,0.37,WeatherCatV1.21B27,2013-09-29 22:23:00,
2013-09-29 18:28:00,77.2,68.6,29.97,ENE,67,2.5,6.9,75,0.00,,,0.37,WeatherCatV1.21B27,2013-09-29 22:28:00,
2013-09-29 18:33:00,76.8,68.3,29.98,NNE,22,4.0,4.0,75,0.00,,,0.37,WeatherCatV1.21B27,2013-09-29 22:33:00,
2013-09-29 18:38:00,76.6,68.5,29.97,NE,45,3.1,3.1,75,0.00,,,0.37,WeatherCatV1.21B27,2013-09-29 22:38:00,
2013-09-29 18:43:00,76.5,68.3,29.97,NNE,22,1.6,1.6,76,0.00,,,0.37,WeatherCatV1.21B27,2013-09-29 22:43:00,
2013-09-29 18:48:00,76.3,68.1,29.97,NNE,22,3.6,3.6,76,0.00,,,0.37,WeatherCatV1.21B27,2013-09-29 22:48:00,
2013-09-29 18:53:00,76.1,68.0,29.97,NNE,22,4.5,5.1,76,0.00,,,0.37,WeatherCatV1.21B27,2013-09-29 22:53:00,
2013-09-29 18:58:00,75.9,68.2,29.97,NNE,22,7.8,7.8,77,0.00,,,0.37,WeatherCatV1.21B27,2013-09-29 22:58:00,
2013-09-29 19:03:00,75.9,68.2,29.97,NNE,22,2.5,2.5,77,0.00,,,0.37,WeatherCatV1.21B27,2013-09-29 23:03:00,
2013-09-29 19:08:00,75.9,68.6,29.97,ESE,112,1.6,1.6,78,0.00,,,0.37,WeatherCatV1.21B27,2013-09-29 23:08:00,
2013-09-29 19:13:00,75.7,68.4,29.97,ENE,67,4.2,4.2,78,0.00,,,0.37,WeatherCatV1.21B27,2013-09-29 23:13:00,
2013-09-29 19:18:00,75.7,68.4,29.97,SE,135,0.0,0.0,78,0.00,,,0.37,WeatherCatV1.21B27,2013-09-29 23:18:00,
2013-09-29 19:23:00,75.6,68.2,29.98,ESE,112,3.6,3.6,78,0.00,,,0.37,WeatherCatV1.21B27,2013-09-29 23:23:00,
2013-09-29 19:28:00,75.4,68.1,29.97,ENE,67,0.0,0.0,78,0.00,,,0.37,WeatherCatV1.21B27,2013-09-29 23:28:00,
2013-09-29 19:33:00,75.4,68.5,29.97,SSE,157,0.0,0.0,79,0.00,,,0.37,WeatherCatV1.21B27,2013-09-29 23:33:00,
2013-09-29 19:38:00,75.0,68.3,29.97,NE,45,4.2,4.2,79,0.00,,,0.37,WeatherCatV1.21B27,2013-09-29 23:38:00,
2013-09-29 19:43:00,75.0,68.1,29.97,ESE,112,1.6,4.2,79,0.00,,,0.37,WeatherCatV1.21B27,2013-09-29 23:43:00,
2013-09-29 19:48:00,75.0,68.1,29.98,NE,45,0.0,0.0,79,0.00,,,0.37,WeatherCatV1.21B27,2013-09-29 23:48:00,
2013-09-29 19:53:00,75.0,68.1,29.98,ESE,112,2.5,2.5,79,0.00,,,0.37,WeatherCatV1.21B27,2013-09-29 23:53:00,
2013-09-29 19:58:00,74.8,68.0,29.97,NE,45,6.9,6.9,79,0.00,,,0.37,WeatherCatV1.21B27,2013-09-29 23:58:00,
2013-09-29 20:03:00,74.8,68.0,29.98,East,90,1.8,1.8,79,0.00,,,0.37,WeatherCatV1.21B27,2013-09-30 00:03:00,
2013-09-29 20:08:00,74.8,68.4,29.98,NE,45,1.3,1.3,80,0.00,,,0.37,WeatherCatV1.21B27,2013-09-30 00:08:00,
2013-09-29 20:13:00,74.8,68.0,29.99,ENE,67,2.0,2.0,79,0.00,,,0.37,WeatherCatV1.21B27,2013-09-30 00:13:00,
2013-09-29 20:18:00,74.8,68.4,29.98,SE,135,0.0,0.0,80,0.00,,,0.37,WeatherCatV1.21B27,2013-09-30 00:18:00,
2013-09-29 20:23:00,74.7,68.2,29.98,ENE,67,0.0,1.3,80,0.00,,,0.37,WeatherCatV1.21B27,2013-09-30 00:23:00,
2013-09-29 20:28:00,74.7,68.2,29.98,ENE,67,0.0,0.0,80,0.00,,,0.37,WeatherCatV1.21B27,2013-09-30 00:28:00,
2013-09-29 20:33:00,74.7,68.2,29.97,South,180,0.0,0.0,80,0.00,,,0.37,WeatherCatV1.21B27,2013-09-30 00:33:00,
2013-09-29 20:38:00,74.5,68.0,29.98,WNW,292,0.0,0.9,80,0.00,,,0.37,WeatherCatV1.21B27,2013-09-30 00:38:00,
2013-09-29 20:43:00,74.5,68.0,29.98,ESE,112,0.0,4.0,80,0.00,,,0.37,WeatherCatV1.21B27,2013-09-30 00:43:00,
2013-09-29 20:48:00,74.5,68.0,29.98,NE,45,0.9,0.9,80,0.00,,,0.37,WeatherCatV1.21B27,2013-09-30 00:48:00,
2013-09-29 20:53:00,74.5,68.0,29.98,ENE,67,4.2,4.2,80,0.00,,,0.37,WeatherCatV1.21B27,2013-09-30 00:53:00,
2013-09-29 20:58:00,74.5,68.3,29.99,NNE,22,2.7,2.7,81,0.00,,,0.37,WeatherCatV1.21B27,2013-09-30 00:58:00,
2013-09-29 21:03:00,74.3,68.2,29.98,NNE,22,4.5,4.5,81,0.00,,,0.37,WeatherCatV1.21B27,2013-09-30 01:03:00,
2013-09-29 21:08:00,74.3,68.2,29.99,East,90,2.2,2.7,81,0.00,,,0.37,WeatherCatV1.21B27,2013-09-30 01:08:00,
2013-09-29 21:13:00,74.3,68.2,29.98,SE,135,0.0,1.1,81,0.00,,,0.37,WeatherCatV1.21B27,2013-09-30 01:13:00,
2013-09-29 21:18:00,74.3,68.2,29.99,ESE,112,3.8,4.2,81,0.00,,,0.37,WeatherCatV1.21B27,2013-09-30 01:18:00,
2013-09-29 21:23:00,74.3,68.2,30.00,ESE,112,1.1,1.1,81,0.00,,,0.37,WeatherCatV1.21B27,2013-09-30 01:23:00,
2013-09-29 21:28:00,74.3,68.2,30.00,SSE,157,0.0,5.1,81,0.00,,,0.37,WeatherCatV1.21B27,2013-09-30 01:28:00,
2013-09-29 21:33:00,74.3,68.2,30.00,ENE,67,3.1,3.1,81,0.00,,,0.37,WeatherCatV1.21B27,2013-09-30 01:33:00,
2013-09-29 21:38:00,74.3,68.2,29.99,NNE,22,4.0,4.0,81,0.00,,,0.37,WeatherCatV1.21B27,2013-09-30 01:38:00,
2013-09-29 21:43:00,74.3,68.2,29.99,East,90,1.6,1.6,81,0.00,,,0.37,WeatherCatV1.21B27,2013-09-30 01:43:00,
2013-09-29 21:48:00,74.3,68.2,30.00,NNE,22,3.4,3.4,81,0.00,,,0.37,WeatherCatV1.21B27,2013-09-30 01:48:00,
2013-09-29 21:53:00,74.1,68.0,30.00,SSW,202,0.0,0.0,81,0.00,,,0.37,WeatherCatV1.21B27,2013-09-30 01:53:00,
2013-09-29 21:58:00,74.1,68.0,29.99,NNE,22,0.0,5.8,81,0.00,,,0.37,WeatherCatV1.21B27,2013-09-30 01:58:00,
2013-09-29 22:03:00,74.1,68.0,30.00,ENE,67,2.2,2.2,81,0.00,,,0.37,WeatherCatV1.21B27,2013-09-30 02:03:00,
2013-09-29 22:08:00,74.1,68.0,30.00,SE,135,0.0,0.0,81,0.00,,,0.37,WeatherCatV1.21B27,2013-09-30 02:08:00,
2013-09-29 22:13:00,74.1,68.0,29.99,SSE,157,0.0,0.0,81,0.00,,,0.37,WeatherCatV1.21B27,2013-09-30 02:13:00,
2013-09-29 22:18:00,74.1,68.0,30.00,East,90,2.9,2.9,81,0.00,,,0.37,WeatherCatV1.21B27,2013-09-30 02:18:00,
2013-09-29 22:23:00,73.9,67.8,30.00,ESE,112,1.6,1.6,81,0.00,,,0.37,WeatherCatV1.21B27,2013-09-30 02:23:00,
2013-09-29 22:28:00,73.9,67.8,29.99,ENE,67,2.5,5.6,81,0.00,,,0.37,WeatherCatV1.21B27,2013-09-30 02:28:00,
2013-09-29 22:33:00,73.9,67.8,29.99,ENE,67,0.7,0.7,81,0.00,,,0.37,WeatherCatV1.21B27,2013-09-30 02:33:00,
2013-09-29 22:38:00,73.9,68.1,29.99,ESE,112,0.0,0.0,82,0.00,,,0.37,WeatherCatV1.21B27,2013-09-30 02:38:00,
2013-09-29 22:43:00,73.9,68.1,29.99,SE,135,1.6,1.6,82,0.00,,,0.37,WeatherCatV1.21B27,2013-09-30 02:43:00,
2013-09-29 22:48:00,73.9,68.1,30.00,NE,45,1.8,1.8,82,0.00,,,0.37,WeatherCatV1.21B27,2013-09-30 02:48:00,
2013-09-29 22:53:00,73.9,68.1,30.00,East,90,0.9,1.8,82,0.00,,,0.37,WeatherCatV1.21B27,2013-09-30 02:53:00,
2013-09-29 22:58:00,73.9,68.1,30.00,East,90,3.8,3.8,82,0.00,,,0.37,WeatherCatV1.21B27,2013-09-30 02:58:00,
2013-09-29 23:03:00,73.9,68.1,30.00,South,180,0.0,0.0,82,0.00,,,0.37,WeatherCatV1.21B27,2013-09-30 03:03:00,
2013-09-29 23:08:00,73.9,68.1,29.99,SE,135,0.0,1.8,82,0.00,,,0.37,WeatherCatV1.21B27,2013-09-30 03:08:00,
2013-09-29 23:13:00,73.9,68.1,29.99,ENE,67,0.0,0.0,82,0.00,,,0.37,WeatherCatV1.21B27,2013-09-30 03:13:00,
2013-09-29 23:18:00,73.8,68.0,30.00,ESE,112,2.0,2.0,82,0.00,,,0.37,WeatherCatV1.21B27,2013-09-30 03:18:00,
2013-09-29 23:23:00,73.8,68.3,30.00,SSW,202,0.0,4.9,83,0.00,,,0.37,WeatherCatV1.21B27,2013-09-30 03:23:00,
2013-09-29 23:28:00,73.8,68.3,29.99,NE,45,0.9,0.9,83,0.00,,,0.37,WeatherCatV1.21B27,2013-09-30 03:28:00,
2013-09-29 23:33:00,73.8,68.3,29.99,ESE,112,0.0,0.0,83,0.00,,,0.37,WeatherCatV1.21B27,2013-09-30 03:33:00,
2013-09-29 23:38:00,73.8,68.3,29.99,ESE,112,0.0,2.2,83,0.00,,,0.37,WeatherCatV1.21B27,2013-09-30 03:38:00,
2013-09-29 23:43:00,73.8,68.3,29.99,SE,135,3.4,3.4,83,0.00,,,0.37,WeatherCatV1.21B27,2013-09-30 03:43:00,
2013-09-29 23:48:00,73.8,68.3,29.99,ESE,112,0.7,0.7,83,0.00,,,0.37,WeatherCatV1.21B27,2013-09-30 03:48:00,
2013-09-29 23:53:00,73.9,68.5,29.99,ENE,67,1.1,1.1,83,0.00,,,0.37,WeatherCatV1.21B27,2013-09-30 03:53:00,
2013-09-29 23:58:00,73.9,68.5,29.99,ENE,67,2.0,2.0,83,0.00,,,0.37,WeatherCatV1.21B27,2013-09-30 03:58:00,